Tracking 32991 objects as of 22-Jan-2026
HD Live streaming from Space Station
objects crossing your sky now

COSMOS 1365 FUEL CORE

Track COSMOS 1365 FUEL CORE now!
10-day predictions


NORAD ID: 13594
Int'l Code: 1982-043D
Perigee: 893.4 km
Apogee: 955.8 km
Inclination: 65.1 °
Period: 103.4 minutes
Semi major axis: 7295 km
RCS: 0.1563 m2 (medium)
Launch date: May 14, 1982
Source: Commonwealth of Independent States (former USSR) (CIS)
Launch site: TYURATAM MISSILE AND SPACE COMPLEX (TTMTR)

Note: This is SATELLITE DEBRIS
Your satellite tracking list
Your tracking list is empty




NASA's NSSDC Master Catalog

Two Line Element Set (TLE):
1 13594U 82043D   26022.46192049 -.00000063  00000-0  20534-4 0  9994
2 13594  65.0708 329.5001 0042804  26.3064 334.0162 13.93195839225570
Source of the keplerian elements: AFSPC